This is the latest recevied weather packets stored in our database for station/object IZ8GMP-13. If no packets are shown the sender has not sent any weather packets the latest 10 day(s).
| Time | Temp. | Humidity | Pressure | Rain* | Wind** | Luminosity | Snow |
|---|---|---|---|---|---|---|---|
| 1788229281 | 27.78° C | 63% | 1015.9 hPa | - | - | - | - |
| 1788228077 | 27.78° C | 63% | 1016 hPa | - | - | - | - |
| 1788226874 | 27.78° C | 64% | 1016.2 hPa | - | - | - | - |
| 1788225670 | 27.78° C | 63% | 1016.1 hPa | - | - | - | - |
| 1788224467 | 28.33° C | 61% | 1015.8 hPa | - | - | - | - |
| 1788223263 | 28.33° C | 58% | 1015.4 hPa | - | - | - | - |
| 1788222060 | 28.33° C | 58% | 1015.2 hPa | - | - | - | - |
| 1788220856 | 27.78° C | 57% | 1015.2 hPa | - | - | - | - |
| 1788219663 | 27.78° C | 57% | 1015 hPa | - | - | - | - |
| 1788217246 | 27.78° C | 57% | 1015.4 hPa | - | - | - | - |
| 1788216043 | 28.89° C | 53% | 1015.5 hPa | - | - | - | - |
| 1788214839 | 28.89° C | 54% | 1015.8 hPa | - | - | - | - |
| 1788213636 | 28.89° C | 55% | 1016 hPa | - | - | - | - |
| 1788212432 | 28.89° C | 54% | 1015.8 hPa | - | - | - | - |
| 1788211228 | 28.89° C | 56% | 1015.7 hPa | - | - | - | - |
| 1788210024 | 28.33° C | 58% | 1015.5 hPa | - | - | - | - |
| 1788207616 | 28.33° C | 61% | 1015.4 hPa | - | - | - | - |
| 1788206412 | 27.78° C | 65% | 1015.2 hPa | - | - | - | - |
| 1788205208 | 28.33° C | 61% | 1015 hPa | - | - | - | - |
| 1788204004 | 28.33° C | 60% | 1015 hPa | - | - | - | - |
| 1788202800 | 28.89° C | 60% | 1014.8 hPa | - | - | - | - |
| 1788201596 | 28.89° C | 62% | 1014.7 hPa | - | - | - | - |
| 1788195576 | 29.44° C | 58% | 1014.6 hPa | - | - | - | - |
| 1788194372 | 30° C | 58% | 1014.5 hPa | - | - | - | - |
| 1788193168 | 30° C | 55% | 1014.5 hPa | - | - | - | - |
* Rain since midnight (hover to see other rain measurements)
** Current wind speed in m/s (hover to see current wind gust speed)